| time (UTC) | temp F | wind direction | speed MPH | gust MPH | rain 1hr in | rain 24hr in | rain mn in | humidity % | barometer mb |
| 20260902234259 | 86 | 174 | 0.0 | 0.0 | 0.00 | 0.00 | 0.00 | 13 | 1016.6 |
| 20260902233759 | 86 | 174 | 0.0 | 0.0 | 0.00 | 0.00 | 0.00 | 13 | 1016.6 |
| 20260902232256 | 87 | 174 | 0.0 | 0.0 | 0.00 | 0.00 | 0.00 | 13 | 1016.6 |
| 20260902231751 | 88 | 174 | 0.0 | 0.0 | 0.00 | 0.00 | 0.00 | 13 | 1016.6 |
| 20260902231251 | 88 | 174 | 0.0 | 0.0 | 0.00 | 0.00 | 0.00 | 13 | 1016.6 |
| 20260902230751 | 88 | 174 | 0.0 | 0.0 | 0.00 | 0.00 | 0.00 | 12 | 1016.6 |
| 20260902225749 | 90 | 174 | 0.0 | 0.0 | 0.00 | 0.00 | 0.00 | 12 | 1016.6 |
| 20260902224747 | 90 | 174 | 0.0 | 0.0 | 0.00 | 0.00 | 0.00 | 12 | 1016.6 |
| 20260902223747 | 90 | 174 | 0.0 | 0.0 | 0.00 | 0.00 | 0.00 | 12 | 1016.6 |
| 20260902222743 | 92 | 174 | 0.0 | 0.0 | 0.00 | 0.00 | 0.00 | 12 | 1016.6 |
| 20260902221738 | 92 | 174 | 0.0 | 0.0 | 0.00 | 0.00 | 0.00 | 11 | 1016.6 |
| 20260902220234 | 93 | 174 | 0.0 | 0.0 | 0.00 | 0.00 | 0.00 | 11 | 1016.6 |
| 20260902215734 | 93 | 174 | 0.0 | 0.0 | 0.00 | 0.00 | 0.00 | 11 | 1016.6 |
| 20260902214730 | 95 | 174 | 0.0 | 0.0 | 0.00 | 0.00 | 0.00 | 11 | 1016.6 |
| 20260902214230 | 95 | 174 | 0.0 | 0.0 | 0.00 | 0.00 | 0.00 | 11 | 1016.6 |
| 20260902213731 | 95 | 174 | 0.0 | 0.0 | 0.00 | 0.00 | 0.00 | 11 | 1016.6 |
| 20260902212915 | 95 | 78 | 0.0 | 0.0 | 0.00 | 0.00 | 0.00 | 11 | 1016.6 |
| 20260902212728 | 95 | 78 | 0.0 | 0.0 | 0.00 | 0.00 | 0.00 | 11 | 1016.6 |
| 20260902212228 | 95 | 111 | 0.0 | 0.0 | 0.00 | 0.00 | 0.00 | 11 | 1017.6 |
| 20260902211722 | 95 | 113 | 0.0 | 0.0 | 0.00 | 0.00 | 0.00 | 11 | 1017.6 |
| 20260902211220 | 95 | 155 | 0.0 | 0.0 | 0.00 | 0.00 | 0.00 | 11 | 1017.6 |
| 20260902210720 | 95 | 154 | 0.0 | 0.0 | 0.00 | 0.00 | 0.00 | 11 | 1017.6 |
| 20260902210215 | 95 | 154 | 0.0 | 0.0 | 0.00 | 0.00 | 0.00 | 11 | 1017.6 |
| 20260902205716 | 96 | 154 | 0.0 | 0.0 | 0.00 | 0.00 | 0.00 | 11 | 1017.6 |
| 20260902205216 | 96 | 154 | 0.0 | 0.0 | 0.00 | 0.00 | 0.00 | 11 | 1017.6 |
| 20260902204711 | 96 | 117 | 0.0 | 0.0 | 0.00 | 0.00 | 0.00 | 11 | 1017.6 |
| 20260902204211 | 96 | 120 | 0.0 | 0.0 | 0.00 | 0.00 | 0.00 | 11 | 1017.6 |
| 20260902203712 | 96 | 150 | 0.0 | 0.0 | 0.00 | 0.00 | 0.00 | 11 | 1017.6 |
| 20260902202709 | 97 | 155 | 0.0 | 0.0 | 0.00 | 0.00 | 0.00 | 11 | 1017.6 |
| 20260902202244 | 97 | 155 | 0.0 | 0.0 | 0.00 | 0.00 | 0.00 | 11 | 1017.6 |
| 20260902202210 | 97 | 155 | 0.0 | 0.0 | 0.00 | 0.00 | 0.00 | 11 | 1017.6 |
| 20260902201705 | 97 | 155 | 0.0 | 0.0 | 0.00 | 0.00 | 0.00 | 11 | 1017.6 |
| 20260902201205 | 97 | 152 | 0.0 | 0.0 | 0.00 | 0.00 | 0.00 | 11 | 1017.6 |
| 20260902200706 | 97 | 152 | 0.0 | 0.0 | 0.00 | 0.00 | 0.00 | 11 | 1017.6 |
| 20260902195703 | 97 | 99 | 0.0 | 0.0 | 0.00 | 0.00 | 0.00 | 11 | 1017.6 |
| 20260902195204 | 97 | 331 | 0.0 | 0.0 | 0.00 | 0.00 | 0.00 | 11 | 1017.6 |
| 20260902194201 | 97 | 330 | 0.0 | 0.0 | 0.00 | 0.00 | 0.00 | 11 | 1017.6 |
| 20260902193702 | 97 | 330 | 0.0 | 0.0 | 0.00 | 0.00 | 0.00 | 11 | 1018.6 |
| 20260902193156 | 96 | 330 | 0.0 | 0.0 | 0.00 | 0.00 | 0.00 | 11 | 1018.6 |
| 20260902192656 | 94 | 330 | 0.0 | 0.0 | 0.00 | 0.00 | 0.00 | 11 | 1018.6 |
| 20260902192157 | 95 | 330 | 0.0 | 0.0 | 0.00 | 0.00 | 0.00 | 11 | 1018.6 |
| 20260902191653 | 96 | 330 | 0.0 | 0.0 | 0.00 | 0.00 | 0.00 | 11 | 1018.6 |
| 20260902191152 | 96 | 330 | 0.0 | 0.0 | 0.00 | 0.00 | 0.00 | 11 | 1018.6 |
| 20260902190652 | 97 | 234 | 0.0 | 0.0 | 0.00 | 0.00 | 0.00 | 11 | 1018.6 |
| 20260902183644 | 97 | 81 | 0.0 | 0.0 | 0.00 | 0.00 | 0.00 | 11 | 1018.6 |
| 20260902182642 | 95 | 253 | 0.0 | 0.0 | 0.00 | 0.00 | 0.00 | 11 | 1018.6 |
| 20260902182217 | 95 | 320 | 0.0 | 0.0 | 0.00 | 0.00 | 0.00 | 11 | 1018.6 |
| 20260902182142 | 95 | 320 | 0.0 | 0.0 | 0.00 | 0.00 | 0.00 | 11 | 1018.6 |
| 20260902181637 | 96 | 323 | 0.0 | 0.0 | 0.00 | 0.00 | 0.00 | 11 | 1018.6 |
| 20260902180635 | 96 | 163 | 0.0 | 0.0 | 0.00 | 0.00 | 0.00 | 11 | 1018.6 |
| 20260902175632 | 95 | 106 | 0.0 | 0.0 | 0.00 | 0.00 | 0.00 | 11 | 1018.6 |
| 20260902174840 | 95 | 76 | 0.0 | 0.0 | 0.00 | 0.00 | 0.00 | 11 | 1019.6 |
| 20260902174629 | 95 | 76 | 0.0 | 0.0 | 0.00 | 0.00 | 0.00 | 11 | 1019.6 |
| 20260902172627 | 94 | 100 | 0.0 | 0.0 | 0.00 | 0.00 | 0.00 | 11 | 1019.6 |
| 20260902172128 | 94 | 101 | 0.0 | 0.0 | 0.00 | 0.00 | 0.00 | 11 | 1019.6 |
| 20260902171623 | 93 | 330 | 0.0 | 0.0 | 0.00 | 0.00 | 0.00 | 11 | 1019.6 |
| 20260902165621 | 93 | 17 | 0.0 | 0.0 | 0.00 | 0.00 | 0.00 | 11 | 1019.6 |
| 20260902165122 | 93 | 106 | 0.0 | 0.0 | 0.00 | 0.00 | 0.00 | 11 | 1020.6 |
| 20260902164118 | 92 | 74 | 0.0 | 0.0 | 0.00 | 0.00 | 0.00 | 11 | 1020.6 |
| 20260902163618 | 92 | 57 | 0.0 | 0.0 | 0.00 | 0.00 | 0.00 | 11 | 1020.6 |
| 20260902163114 | 92 | 139 | 0.0 | 0.0 | 0.00 | 0.00 | 0.00 | 12 | 1020.6 |
| 20260902162114 | 91 | 65 | 0.0 | 0.0 | 0.00 | 0.00 | 0.00 | 12 | 1020.6 |
| 20260902154101 | 88 | 78 | 0.0 | 0.0 | 0.00 | 0.00 | 0.00 | 12 | 1020.6 |
| 20260902153559 | 88 | 109 | 0.0 | 0.0 | 0.00 | 0.00 | 0.00 | 13 | 1020.6 |
| 20260902152201 | 88 | 106 | 0.0 | 0.0 | 0.00 | 0.00 | 0.00 | 13 | 1020.6 |
| 20260902152053 | 88 | 106 | 0.0 | 0.0 | 0.00 | 0.00 | 0.00 | 13 | 1020.6 |
| 20260902151051 | 87 | 98 | 0.0 | 0.0 | 0.00 | 0.00 | 0.00 | 13 | 1020.6 |
| 20260902145549 | 86 | 92 | 0.0 | 0.0 | 0.00 | 0.00 | 0.00 | 16 | 1020.6 |
| 20260902145049 | 85 | 99 | 0.0 | 0.0 | 0.00 | 0.00 | 0.00 | 16 | 1020.6 |
| 20260902141532 | 82 | 97 | 0.0 | 0.0 | 0.00 | 0.00 | 0.00 | 21 | 1020.6 |
| 20260902141032 | 82 | 98 | 0.0 | 0.0 | 0.00 | 0.00 | 0.00 | 23 | 1020.6 |
| 20260902135516 | 80 | 103 | 0.0 | 0.0 | 0.00 | 0.00 | 0.00 | 26 | 1020.6 |
| 20260902134511 | 79 | 103 | 0.0 | 0.0 | 0.00 | 0.00 | 0.00 | 30 | 1020.6 |
| 20260902133509 | 78 | 103 | 0.0 | 0.0 | 0.00 | 0.00 | 0.00 | 30 | 1020.6 |
| 20260902133000 | 78 | 103 | 0.0 | 0.0 | 0.00 | 0.00 | 0.00 | 30 | 1020.6 |
| 20260902131957 | 77 | 103 | 0.0 | 0.0 | 0.00 | 0.00 | 0.00 | 31 | 1020.6 |
| 20260902131452 | 77 | 103 | 0.0 | 0.0 | 0.00 | 0.00 | 0.00 | 31 | 1020.6 |
| 20260902130448 | 76 | 103 | 0.0 | 0.0 | 0.00 | 0.00 | 0.00 | 32 | 1020.6 |
| 20260902125520 | 75 | 103 | 0.0 | 0.0 | 0.00 | 0.00 | 0.00 | 32 | 1019.6 |
| 20260902125445 | 75 | 103 | 0.0 | 0.0 | 0.00 | 0.00 | 0.00 | 32 | 1019.6 |
| 20260902124436 | 74 | 103 | 0.0 | 0.0 | 0.00 | 0.00 | 0.00 | 33 | 1019.6 |
| 20260902123936 | 74 | 103 | 0.0 | 0.0 | 0.00 | 0.00 | 0.00 | 33 | 1019.6 |
| 20260902123436 | 73 | 103 | 0.0 | 0.0 | 0.00 | 0.00 | 0.00 | 33 | 1019.6 |
| 20260902121932 | 72 | 103 | 0.0 | 0.0 | 0.00 | 0.00 | 0.00 | 33 | 1019.6 |
| 20260902121428 | 72 | 103 | 0.0 | 0.0 | 0.00 | 0.00 | 0.00 | 33 | 1019.6 |
| 20260902120428 | 72 | 103 | 0.0 | 0.0 | 0.00 | 0.00 | 0.00 | 33 | 1019.6 |
| 20260902115924 | 71 | 103 | 0.0 | 0.0 | 0.00 | 0.00 | 0.00 | 33 | 1019.6 |
| 20260902115420 | 71 | 103 | 0.0 | 0.0 | 0.00 | 0.00 | 0.00 | 33 | 1019.6 |
| 20260902114918 | 71 | 103 | 0.0 | 0.0 | 0.00 | 0.00 | 0.00 | 33 | 1019.6 |
| 20260902114414 | 71 | 103 | 0.0 | 0.0 | 0.00 | 0.00 | 0.00 | 33 | 1019.6 |
| 20260902113913 | 71 | 103 | 0.0 | 0.0 | 0.00 | 0.00 | 0.00 | 33 | 1019.6 |
| 20260902113413 | 71 | 103 | 0.0 | 0.0 | 0.00 | 0.00 | 0.00 | 33 | 1019.6 |
| 20260902112909 | 71 | 103 | 0.0 | 0.0 | 0.00 | 0.00 | 0.00 | 33 | 1019.6 |
| 20260902111908 | 71 | 103 | 0.0 | 0.0 | 0.00 | 0.00 | 0.00 | 33 | 1019.6 |
| 20260902111401 | 71 | 103 | 0.0 | 0.0 | 0.00 | 0.00 | 0.00 | 32 | 1019.6 |
| 20260902110901 | 71 | 103 | 0.0 | 0.0 | 0.00 | 0.00 | 0.00 | 32 | 1018.6 |
| 20260902110401 | 71 | 103 | 0.0 | 0.0 | 0.00 | 0.00 | 0.00 | 32 | 1018.6 |
| 20260902105857 | 71 | 103 | 0.0 | 0.0 | 0.00 | 0.00 | 0.00 | 32 | 1018.6 |
| 20260902104857 | 71 | 103 | 0.0 | 0.0 | 0.00 | 0.00 | 0.00 | 32 | 1018.6 |
| 20260902103847 | 71 | 103 | 0.0 | 0.0 | 0.00 | 0.00 | 0.00 | 32 | 1018.6 |
| 20260902103347 | 71 | 103 | 0.0 | 0.0 | 0.00 | 0.00 | 0.00 | 32 | 1018.6 |
| 20260902102341 | 71 | 103 | 0.0 | 0.0 | 0.00 | 0.00 | 0.00 | 32 | 1018.6 |
| 20260902101842 | 71 | 103 | 0.0 | 0.0 | 0.00 | 0.00 | 0.00 | 32 | 1018.6 |
| 20260902101338 | 71 | 103 | 0.0 | 0.0 | 0.00 | 0.00 | 0.00 | 32 | 1018.6 |
| 20260902095835 | 71 | 103 | 0.0 | 0.0 | 0.00 | 0.00 | 0.00 | 32 | 1018.6 |
| 20260902095335 | 71 | 103 | 0.0 | 0.0 | 0.00 | 0.00 | 0.00 | 32 | 1018.6 |
| 20260902094327 | 71 | 103 | 0.0 | 0.0 | 0.00 | 0.00 | 0.00 | 32 | 1018.6 |
| 20260902093827 | 71 | 103 | 0.0 | 0.0 | 0.00 | 0.00 | 0.00 | 32 | 1018.6 |
| 20260902093327 | 71 | 103 | 0.0 | 0.0 | 0.00 | 0.00 | 0.00 | 32 | 1018.6 |
| 20260902092816 | 71 | 103 | 0.0 | 0.0 | 0.00 | 0.00 | 0.00 | 32 | 1018.6 |
| 20260902092316 | 71 | 103 | 0.0 | 0.0 | 0.00 | 0.00 | 0.00 | 32 | 1018.6 |
| 20260902091812 | 72 | 103 | 0.0 | 0.0 | 0.00 | 0.00 | 0.00 | 32 | 1018.6 |
| 20260902090803 | 72 | 103 | 0.0 | 0.0 | 0.00 | 0.00 | 0.00 | 32 | 1018.6 |
| 20260902090302 | 72 | 103 | 0.0 | 0.0 | 0.00 | 0.00 | 0.00 | 32 | 1018.6 |
| 20260902085755 | 72 | 103 | 0.0 | 0.0 | 0.00 | 0.00 | 0.00 | 32 | 1018.6 |
| 20260902083744 | 72 | 103 | 0.0 | 0.0 | 0.00 | 0.00 | 0.00 | 32 | 1018.6 |
| 20260902082740 | 72 | 103 | 0.0 | 0.0 | 0.00 | 0.00 | 0.00 | 32 | 1018.6 |
| 20260902082240 | 72 | 103 | 0.0 | 0.0 | 0.00 | 0.00 | 0.00 | 32 | 1018.6 |
| 20260902081740 | 72 | 103 | 0.0 | 0.0 | 0.00 | 0.00 | 0.00 | 32 | 1018.6 |
| 20260902081234 | 72 | 103 | 0.0 | 0.0 | 0.00 | 0.00 | 0.00 | 32 | 1018.6 |
| 20260902080730 | 72 | 103 | 0.0 | 0.0 | 0.00 | 0.00 | 0.00 | 32 | 1018.6 |
| 20260902080231 | 72 | 103 | 0.0 | 0.0 | 0.00 | 0.00 | 0.00 | 32 | 1018.6 |
| 20260902075726 | 72 | 103 | 0.0 | 0.0 | 0.00 | 0.00 | 0.00 | 32 | 1018.6 |
| 20260902075226 | 72 | 103 | 0.0 | 0.0 | 0.00 | 0.00 | 0.00 | 32 | 1018.6 |
| 20260902074727 | 72 | 103 | 0.0 | 0.0 | 0.00 | 0.00 | 0.00 | 31 | 1018.6 |
| 20260902074217 | 72 | 103 | 0.0 | 0.0 | 0.00 | 0.00 | 0.00 | 31 | 1018.6 |
| 20260902073218 | 72 | 103 | 0.0 | 0.0 | 0.00 | 0.00 | 0.00 | 31 | 1018.6 |
| 20260902072216 | 73 | 103 | 0.0 | 0.0 | 0.00 | 0.00 | 0.00 | 31 | 1018.6 |
| 20260902071435 | 73 | 103 | 0.0 | 0.0 | 0.00 | 0.00 | 0.00 | 31 | 1018.6 |
| 20260902071211 | 73 | 103 | 0.0 | 0.0 | 0.00 | 0.00 | 0.00 | 31 | 1018.6 |
| 20260902070712 | 73 | 103 | 0.0 | 0.0 | 0.00 | 0.00 | 0.00 | 31 | 1017.6 |
| 20260902070423 | 73 | 103 | 0.0 | 0.0 | 0.00 | 0.00 | 0.00 | 31 | 1017.6 |
| 20260902070212 | 73 | 103 | 0.0 | 0.0 | 0.00 | 0.00 | 0.00 | 31 | 1017.6 |
| 20260902065707 | 73 | 103 | 0.0 | 0.0 | 0.00 | 0.00 | 0.00 | 31 | 1017.6 |
| 20260902065208 | 73 | 103 | 0.0 | 0.0 | 0.00 | 0.00 | 0.00 | 31 | 1017.6 |
| 20260902064708 | 73 | 103 | 0.0 | 0.0 | 0.00 | 0.00 | 0.00 | 31 | 1017.6 |
| 20260902063200 | 73 | 103 | 0.0 | 0.0 | 0.00 | 0.00 | 0.00 | 30 | 1017.6 |
| 20260902062239 | 73 | 103 | 0.0 | 0.0 | 0.00 | 0.00 | 0.00 | 30 | 1017.6 |
| 20260902062157 | 73 | 103 | 0.0 | 0.0 | 0.00 | 0.00 | 0.00 | 30 | 1017.6 |
| 20260902061653 | 73 | 103 | 0.0 | 0.0 | 0.00 | 0.00 | 0.00 | 30 | 1017.6 |
| 20260902061149 | 73 | 103 | 0.0 | 0.0 | 0.00 | 0.00 | 0.00 | 30 | 1017.6 |
| 20260902060648 | 74 | 103 | 0.0 | 0.0 | 0.00 | 0.00 | 0.00 | 30 | 1017.6 |
| 20260902060148 | 74 | 103 | 0.0 | 0.0 | 0.00 | 0.00 | 0.00 | 29 | 1017.6 |
| 20260902055643 | 74 | 103 | 0.0 | 0.0 | 0.00 | 0.00 | 0.00 | 29 | 1017.6 |
| 20260902055143 | 74 | 103 | 0.0 | 0.0 | 0.00 | 0.00 | 0.00 | 29 | 1018.6 |
| 20260902054643 | 74 | 103 | 0.0 | 0.0 | 0.00 | 0.00 | 0.00 | 29 | 1018.6 |
| 20260902054141 | 74 | 103 | 0.0 | 0.0 | 0.00 | 0.00 | 0.00 | 29 | 1018.6 |
| 20260902052634 | 74 | 103 | 0.0 | 0.0 | 0.00 | 0.00 | 0.00 | 28 | 1018.6 |
| 20260902052134 | 74 | 103 | 0.0 | 0.0 | 0.00 | 0.00 | 0.00 | 28 | 1018.6 |
| 20260902051128 | 74 | 103 | 0.0 | 0.0 | 0.00 | 0.00 | 0.00 | 27 | 1018.6 |
| 20260902050628 | 74 | 103 | 0.0 | 0.0 | 0.00 | 0.00 | 0.00 | 27 | 1018.6 |
| 20260902050129 | 74 | 103 | 0.0 | 0.0 | 0.00 | 0.00 | 0.00 | 27 | 1018.6 |
| 20260902045621 | 74 | 103 | 0.0 | 0.0 | 0.00 | 0.00 | 0.00 | 27 | 1018.6 |
| 20260902045121 | 75 | 103 | 0.0 | 0.0 | 0.00 | 0.00 | 0.00 | 27 | 1018.6 |
| 20260902044619 | 75 | 103 | 0.0 | 0.0 | 0.00 | 0.00 | 0.00 | 27 | 1018.6 |
| 20260902044115 | 75 | 103 | 0.0 | 0.0 | 0.00 | 0.00 | 0.00 | 27 | 1018.6 |
| 20260902043614 | 75 | 103 | 0.0 | 0.0 | 0.00 | 0.00 | 0.00 | 27 | 1018.6 |
| 20260902043114 | 75 | 103 | 0.0 | 0.0 | 0.00 | 0.00 | 0.00 | 27 | 1018.6 |
| 20260902042610 | 75 | 103 | 0.0 | 0.0 | 0.00 | 0.00 | 0.00 | 27 | 1018.6 |
| 20260902042110 | 75 | 103 | 0.0 | 0.0 | 0.00 | 0.00 | 0.00 | 26 | 1018.6 |
| 20260902041611 | 75 | 103 | 0.0 | 0.0 | 0.00 | 0.00 | 0.00 | 26 | 1018.6 |
| 20260902041106 | 75 | 103 | 0.0 | 0.0 | 0.00 | 0.00 | 0.00 | 26 | 1018.6 |
| 20260902040607 | 75 | 103 | 0.0 | 0.0 | 0.00 | 0.00 | 0.00 | 26 | 1018.6 |
| 20260902035602 | 75 | 103 | 0.0 | 0.0 | 0.00 | 0.00 | 0.00 | 25 | 1018.6 |
| 20260902035103 | 76 | 103 | 0.0 | 0.0 | 0.00 | 0.00 | 0.00 | 25 | 1018.6 |
| 20260902034603 | 76 | 103 | 0.0 | 0.0 | 0.00 | 0.00 | 0.00 | 25 | 1018.6 |
| 20260902034100 | 76 | 103 | 0.0 | 0.0 | 0.00 | 0.00 | 0.00 | 25 | 1018.6 |
| 20260902033557 | 76 | 103 | 0.0 | 0.0 | 0.00 | 0.00 | 0.00 | 25 | 1018.6 |
| 20260902032551 | 76 | 103 | 0.0 | 0.0 | 0.00 | 0.00 | 0.00 | 25 | 1018.6 |
| 20260902032051 | 76 | 103 | 0.0 | 0.0 | 0.00 | 0.00 | 0.00 | 24 | 1018.6 |
| 20260902031551 | 76 | 103 | 0.0 | 0.0 | 0.00 | 0.00 | 0.00 | 24 | 1018.6 |
| 20260902031047 | 76 | 103 | 0.0 | 0.0 | 0.00 | 0.00 | 0.00 | 23 | 1018.6 |
| 20260902030546 | 76 | 103 | 0.0 | 0.0 | 0.00 | 0.00 | 0.00 | 23 | 1018.6 |
| 20260902030046 | 77 | 103 | 0.0 | 0.0 | 0.00 | 0.00 | 0.00 | 23 | 1018.6 |
| 20260902025541 | 77 | 103 | 0.0 | 0.0 | 0.00 | 0.00 | 0.00 | 23 | 1018.6 |
| 20260902025041 | 77 | 103 | 0.0 | 0.0 | 0.00 | 0.00 | 0.00 | 23 | 1018.6 |
| 20260902024540 | 77 | 103 | 0.0 | 0.0 | 0.00 | 0.00 | 0.00 | 23 | 1018.6 |
| 20260902023532 | 77 | 103 | 0.0 | 0.0 | 0.00 | 0.00 | 0.00 | 22 | 1018.6 |
| 20260902023032 | 77 | 103 | 0.0 | 0.0 | 0.00 | 0.00 | 0.00 | 22 | 1018.6 |
| 20260902020522 | 78 | 103 | 0.0 | 0.0 | 0.00 | 0.00 | 0.00 | 21 | 1018.6 |
| 20260902020022 | 78 | 103 | 0.0 | 0.0 | 0.00 | 0.00 | 0.00 | 21 | 1018.6 |
| 20260902015518 | 78 | 103 | 0.0 | 0.0 | 0.00 | 0.00 | 0.00 | 21 | 1018.6 |
| 20260902014515 | 79 | 103 | 0.0 | 0.0 | 0.00 | 0.00 | 0.00 | 21 | 1018.6 |
| 20260902013512 | 79 | 103 | 0.0 | 0.0 | 0.00 | 0.00 | 0.00 | 20 | 1017.6 |
| 20260902013013 | 79 | 103 | 0.0 | 0.0 | 0.00 | 0.00 | 0.00 | 20 | 1017.6 |
| 20260902012510 | 79 | 103 | 0.0 | 0.0 | 0.00 | 0.00 | 0.00 | 20 | 1017.6 |
| 20260902012008 | 80 | 103 | 0.0 | 0.0 | 0.00 | 0.00 | 0.00 | 20 | 1017.6 |
| 20260902011509 | 80 | 103 | 0.0 | 0.0 | 0.00 | 0.00 | 0.00 | 19 | 1017.6 |
| 20260902010504 | 80 | 103 | 0.0 | 0.0 | 0.00 | 0.00 | 0.00 | 19 | 1017.6 |
| 20260902005459 | 81 | 103 | 0.0 | 0.0 | 0.00 | 0.00 | 0.00 | 17 | 1017.6 |
| 20260902005000 | 81 | 103 | 0.0 | 0.0 | 0.00 | 0.00 | 0.00 | 17 | 1017.6 |
| 20260902004500 | 81 | 103 | 0.0 | 0.0 | 0.00 | 0.00 | 0.00 | 17 | 1017.6 |
| 20260902003955 | 81 | 103 | 0.0 | 0.0 | 0.00 | 0.00 | 0.00 | 16 | 1017.6 |
| 20260902002956 | 82 | 103 | 0.0 | 0.0 | 0.00 | 0.00 | 0.00 | 14 | 1017.6 |
| 20260902002452 | 82 | 103 | 0.0 | 0.0 | 0.00 | 0.00 | 0.00 | 14 | 1017.6 |
| 20260902001949 | 83 | 103 | 0.0 | 0.0 | 0.00 | 0.00 | 0.00 | 14 | 1017.6 |
| 20260902001525 | 83 | 103 | 0.0 | 0.0 | 0.00 | 0.00 | 0.00 | 13 | 1017.6 |
| 20260902001449 | 83 | 103 | 0.0 | 0.0 | 0.00 | 0.00 | 0.00 | 13 | 1017.6 |
| 20260902000945 | 83 | 103 | 0.0 | 0.0 | 0.00 | 0.00 | 0.00 | 13 | 1017.6 |